BADR 6

导读

BADR-6是由阿联酋(AL)委托研制的通信卫星,于北京时间2008年7月7日8时成功发射。卫星定位于地球静止轨道,主要承担中东、非洲及欧洲地区的广播电视传输、宽带通信服务任务,携带多个高性能转发器,可提供高清电视信号分发与应急通信保障,是阿联酋Badr系列通信卫星中重要的组网卫星,服役期间为区域通信覆盖能力提升发挥了关键作用。

基本信息
目录编号:
33154
目录名称:
BADR 6
国际标识:
2008-034B
轨道中心:
EARTH
卫星名称:
BADR 6
卫星全名:
--
卫星状态:
在轨 (已飞行6558 天)
发射日期:
2008-07-07 UTC
国别 :
(ASCO)
星等 :
--
轨道信息
数据来源 国际轨道数据 AOE轨道数据
星历时间 2026-06-20T17:46:14+0800
22小时前
查看轨道信息
2026-06-21T12:00:00+0800
4小时前
查看轨道信息
半长轴 42598.999km 42598.97km
偏心率 0.0010918 0.0011049
轨道倾角 2.880° 2.882°
近地点辐角 353.250° 354.002°
升交点赤经 79.459° 79.451°
平近点角 58.640° 327.905°
近地点 36174.352km 36173.765km
远地点 36267.372km 36267.901km
周期 1458.340分钟 1458.339分钟
每日圈数 0.987424 0.987425
详细信息
使用方式:
暂无
2D轨道图
3D轨道图
轨道高度分析图
轨道倾角分析图
轨道综合分析图
查看轨道综合分析图